When you browse on this site, cookies collect data to enhance your experience and personalize the content and advertising you see.
Visit our Privacy Policy to learn more. By continuing to use the site, you agree to this use of cookies and data.
  • In Hungary
  • List of Countries
  • For 7 days
  • Water Temperature
  • Weather Map
  • News
  • Weather Widgets
  • user-avatar
    Login

    Hourly Weather Bobowicko

    Today, 12 December, Thursday

    Time Temperature Precipitation Wind Pressure Humidity
    00:00 -2°C° 0 mm 3 mps 750 mmHg 66%
    01:00 -2°C° 0 mm 2 mps 749 mmHg 66%
    02:00 -2°C° 0 mm 2 mps 749 mmHg 65%
    03:00 -2°C° 0 mm 2 mps 748 mmHg 64%
    04:00 -2°C° 0 mm 2 mps 748 mmHg 63%
    05:00 -1°C° 0 mm 3 mps 748 mmHg 63%
    06:00 -1°C° 0 mm 3 mps 748 mmHg 62%
    07:00 0°C° 0 mm 3 mps 747 mmHg 62%
    08:00 0°C° 0 mm 3 mps 747 mmHg 67%
    09:00 +1°C° 0 mm 3 mps 747 mmHg 71%
    10:00 0°C° 0 mm 4 mps 747 mmHg 76%
    11:00 +1°C° 0 mm 3 mps 747 mmHg 79%
    12:00 +1°C° 0 mm 3 mps 748 mmHg 82%
    13:00 +2°C° 0 mm 3 mps 748 mmHg 85%
    14:00 +2°C° 0 mm 3 mps 747 mmHg 86%
    15:00 +2°C° 0 mm 3 mps 747 mmHg 87%
    16:00 +1°C° 0 mm 3 mps 747 mmHg 88%
    17:00 +1°C° 0 mm 3 mps 747 mmHg 87%
    18:00 +1°C° 0 mm 3 mps 747 mmHg 87%
    19:00 +1°C° 0 mm 3 mps 747 mmHg 86%
    20:00 +1°C° 0 mm 3 mps 746 mmHg 85%
    21:00 +1°C° 0 mm 3 mps 746 mmHg 85%
    22:00 +1°C° 0 mm 3 mps 745 mmHg 84%
    23:00 +1°C° 0 mm 3 mps 745 mmHg 83%

    Tomorrow, 13 December, Friday

    Time Temperature Precipitation Wind Pressure Humidity
    00:00 0°C° 0 mm 3 mps 744 mmHg 83%
    01:00 -1°C° 0 mm 4 mps 743 mmHg 82%
    02:00 0°C° 0 mm 3 mps 742 mmHg 83%
    03:00 -1°C° 0 mm 3 mps 742 mmHg 84%
    04:00 -1°C° 0 mm 3 mps 741 mmHg 85%
    05:00 -2°C° 0 mm 4 mps 740 mmHg 86%
    06:00 -2°C° 0 mm 4 mps 739 mmHg 86%
    07:00 -2°C° 0 mm 4 mps 738 mmHg 87%
    08:00 -1°C° 0 mm 5 mps 737 mmHg 85%
    09:00 0°C° 0 mm 5 mps 737 mmHg 83%
    10:00 +1°C° 0 mm 6 mps 736 mmHg 81%
    11:00 +1°C° 0 mm 5 mps 736 mmHg 80%
    12:00 +2°C° 0 mm 5 mps 735 mmHg 78%
    13:00 +3°C° 0 mm 5 mps 735 mmHg 76%
    14:00 +3°C° 0 mm 4 mps 735 mmHg 78%
    15:00 +3°C° 0 mm 4 mps 734 mmHg 80%
    16:00 +3°C° 0 mm 4 mps 734 mmHg 82%
    17:00 +1°C° 0 mm 4 mps 734 mmHg 83%
    18:00 +2°C° 0 mm 3 mps 735 mmHg 84%
    19:00 +1°C° 0 mm 3 mps 735 mmHg 85%
    20:00 +1°C° 0 mm 3 mps 735 mmHg 86%
    21:00 0°C° 0 mm 4 mps 735 mmHg 88%
    22:00 0°C° 0 mm 4 mps 736 mmHg 89%
    23:00 +1°C° 0 mm 4 mps 736 mmHg 87%

    Day after tomorrow, 14 December, Saturday

    Time Temperature Precipitation Wind Pressure Humidity
    00:00 +1°C° 0 mm 4 mps 736 mmHg 84%
    01:00 +1°C° 0 mm 4 mps 736 mmHg 82%
    02:00 +1°C° 0 mm 4 mps 737 mmHg 83%
    03:00 +1°C° 0 mm 5 mps 737 mmHg 85%
    04:00 +1°C° 0 mm 5 mps 737 mmHg 87%
    05:00 +2°C° 0.3 mm 5 mps 737 mmHg 88%
    06:00 +2°C° 0.3 mm 5 mps 738 mmHg 90%
    07:00 +2°C° 0.3 mm 5 mps 738 mmHg 91%
    08:00 +2°C° 0.1 mm 5 mps 739 mmHg 87%
    09:00 +2°C° 0.1 mm 5 mps 739 mmHg 84%
    10:00 +3°C° 0.1 mm 6 mps 739 mmHg 80%
    11:00 +3°C° 0 mm 6 mps 740 mmHg 76%
    12:00 +3°C° 0 mm 6 mps 740 mmHg 72%
    13:00 +4°C° 0 mm 6 mps 740 mmHg 68%
    14:00 +3°C° 0.2 mm 6 mps 740 mmHg 75%
    15:00 +3°C° 0.2 mm 6 mps 740 mmHg 82%
    16:00 +2°C° 0.2 mm 6 mps 739 mmHg 89%
    17:00 +3°C° 0.4 mm 6 mps 740 mmHg 84%
    18:00 +4°C° 0.4 mm 7 mps 741 mmHg 78%
    19:00 +4°C° 0.4 mm 7 mps 741 mmHg 72%
    20:00 +4°C° 0 mm 6 mps 742 mmHg 72%
    21:00 +3°C° 0 mm 6 mps 744 mmHg 71%
    22:00 +2°C° 0 mm 5 mps 745 mmHg 71%
    23:00 +2°C° 0 mm 5 mps 745 mmHg 72%

    15 December, Sunday

    Time Temperature Precipitation Wind Pressure Humidity
    00:00 +2°C° 0 mm 5 mps 746 mmHg 73%
    01:00 +2°C° 0 mm 5 mps 746 mmHg 74%
    02:00 +3°C° 0 mm 4 mps 746 mmHg 79%
    03:00 +3°C° 0 mm 4 mps 746 mmHg 85%
    04:00 +3°C° 0 mm 3 mps 747 mmHg 90%
    05:00 +3°C° 0 mm 3 mps 746 mmHg 89%
    06:00 +3°C° 0 mm 4 mps 746 mmHg 88%
    07:00 +3°C° 0 mm 4 mps 746 mmHg 86%
    08:00 +3°C° 0.3 mm 5 mps 745 mmHg 87%
    09:00 +5°C° 0.3 mm 5 mps 745 mmHg 89%
    10:00 +4°C° 0.3 mm 6 mps 745 mmHg 90%
    11:00 +5°C° 0.7 mm 6 mps 745 mmHg 88%
    12:00 +6°C° 0.7 mm 7 mps 745 mmHg 86%
    13:00 +8°C° 0.7 mm 7 mps 746 mmHg 84%
    14:00 +7°C° 0.3 mm 6 mps 747 mmHg 76%
    15:00 +5°C° 0.3 mm 6 mps 748 mmHg 68%
    16:00 +5°C° 0.3 mm 5 mps 750 mmHg 60%
    17:00 +3°C° 0 mm 5 mps 750 mmHg 61%
    18:00 +4°C° 0 mm 4 mps 751 mmHg 62%
    19:00 +3°C° 0 mm 4 mps 752 mmHg 63%
    20:00 +3°C° 0 mm 4 mps 753 mmHg 66%
    21:00 +1°C° 0 mm 4 mps 753 mmHg 68%
    22:00 +1°C° 0 mm 4 mps 754 mmHg 70%
    23:00 +2°C° 0 mm 3 mps 754 mmHg 74%

    16 December, Monday

    Time Temperature Precipitation Wind Pressure Humidity
    00:00 +2°C° 0 mm 3 mps 754 mmHg 77%
    01:00 +2°C° 0 mm 3 mps 754 mmHg 81%
    02:00 +2°C° 0 mm 3 mps 754 mmHg 82%
    03:00 +2°C° 0 mm 3 mps 754 mmHg 83%
    04:00 +2°C° 0 mm 3 mps 754 mmHg 84%
    05:00 +2°C° 0 mm 3 mps 754 mmHg 85%
    06:00 +2°C° 0 mm 3 mps 754 mmHg 86%
    07:00 +2°C° 0 mm 3 mps 754 mmHg 88%
    08:00 +2°C° 0 mm 3 mps 754 mmHg 86%
    09:00 +3°C° 0 mm 3 mps 754 mmHg 85%
    10:00 +4°C° 0 mm 3 mps 755 mmHg 83%
    11:00 +4°C° 0 mm 3 mps 754 mmHg 82%
    12:00 +5°C° 0 mm 3 mps 754 mmHg 81%
    13:00 +7°C° 0 mm 3 mps 754 mmHg 80%
    14:00 +7°C° 0 mm 2 mps 754 mmHg 83%
    15:00 +6°C° 0 mm 2 mps 754 mmHg 86%
    16:00 +6°C° 0 mm 2 mps 754 mmHg 90%
    17:00 +6°C° 0.1 mm 2 mps 754 mmHg 90%
    18:00 +6°C° 0.1 mm 2 mps 754 mmHg 90%
    19:00 +6°C° 0.1 mm 2 mps 754 mmHg 90%
    20:00 +6°C° 0.2 mm 2 mps 754 mmHg 89%
    21:00 +6°C° 0.2 mm 2 mps 754 mmHg 88%
    22:00 +6°C° 0.2 mm 2 mps 754 mmHg 87%
    23:00 +6°C° 0 mm 2 mps 753 mmHg 86%

    17 December, Tuesday

    Time Temperature Precipitation Wind Pressure Humidity
    00:00 +6°C° 0 mm 2 mps 753 mmHg 85%
    01:00 +6°C° 0 mm 2 mps 753 mmHg 85%
    02:00 +5°C° 0 mm 2 mps 753 mmHg 86%
    03:00 +5°C° 0 mm 2 mps 753 mmHg 87%
    04:00 +5°C° 0 mm 2 mps 753 mmHg 88%
    05:00 +4°C° 0 mm 2 mps 753 mmHg 89%
    06:00 +4°C° 0 mm 2 mps 752 mmHg 89%
    07:00 +4°C° 0 mm 2 mps 752 mmHg 90%
    08:00 +4°C° 0 mm 2 mps 753 mmHg 88%
    09:00 +5°C° 0 mm 2 mps 753 mmHg 86%
    10:00 +4°C° 0 mm 3 mps 753 mmHg 84%
    11:00 +5°C° 0 mm 3 mps 753 mmHg 81%
    12:00 +7°C° 0 mm 3 mps 753 mmHg 78%
    13:00 +7°C° 0 mm 2 mps 752 mmHg 75%
    14:00 +7°C° 0 mm 2 mps 752 mmHg 77%
    15:00 +7°C° 0 mm 2 mps 753 mmHg 79%
    16:00 +7°C° 0 mm 2 mps 753 mmHg 80%
    17:00 +7°C° 0 mm 3 mps 753 mmHg 80%
    18:00 +7°C° 0 mm 3 mps 753 mmHg 79%
    19:00 +6°C° 0 mm 4 mps 753 mmHg 79%
    20:00 +6°C° 0 mm 4 mps 753 mmHg 78%
    21:00 +6°C° 0 mm 4 mps 753 mmHg 78%
    22:00 +7°C° 0 mm 4 mps 754 mmHg 77%
    23:00 +7°C° 0 mm 5 mps 754 mmHg 79%
    Show more